{"data":{"norad_id":65490,"intl_designator":"2025-197C","name":"2025-197C","alt_names":[],"object_type":"PAYLOAD","status":"ACTIVE","operator":null,"country":"PRC","launch_date":"2025-09-05","launch_site_code":"JSC","launch_vehicle":null,"mission":null,"orbit_class":"UNKNOWN","rcs_meters":null,"size_class":null,"mass_kg":null,"dimensions":null,"purposes":[],"wikipedia_slug":null,"has_3d_model":false,"image_url":null,"decayed_at":null,"tle_current":{"epoch":"2026-09-20T12:22:39.184320Z","epoch_age_seconds":154296,"freshness":"FRESH","line1":"1 65490U 25197C   26263.51573130  .00002940  00000+0  11974-3 0  9991","line2":"2 65490  97.4110  89.5253 0015148  39.7364 320.4980 15.25179741 57843","mean_motion":15.25179741,"eccentricity":0.0015148,"inclination_deg":97.411,"raan_deg":89.5253,"arg_perigee_deg":39.7364,"mean_anomaly_deg":320.498,"bstar":0.00011974,"rev_number":5784,"period_min":94.415101465736,"perigee_km":479.84153291683,"apogee_km":500.64998532386,"semimajor_km":6868.3827591203,"source":"CELESTRAK","updated_at":"2026-09-21T09:00:15.389047Z"}}}